Regional Weather Roundup
Issued by NWS Cleveland, OH

Home | Current Version | Previous Version | Graphics & Text | Print | Product List | Glossary On
Versions: 1 2 3 4 5 6 7 8 9 10 11 12 13 14 15 16 17 18 19 20 21 22 23 24 25 26 27 28 29 30 31 32 33 34 35 36 37 38 39 40 41 42 43 44 45 46 47 48 49 50
000
ASUS41 KCLE 240102
RWRCLE
OHIO REGIONAL WEATHER ROUNDUP
NATIONAL WEATHER SERVICE CLEVELAND, OH
900 PM EDT SUN APR 23 2017

NOTE: "FAIR" INDICATES FEW OR NO CLOUDS BELOW 12,000 FEET WITH NO
SIGNIFICANT WEATHER AND/OR OBSTRUCTIONS TO VISIBILITY.

OHZ001>008-015>018-024>027-034-035-043-044-240200-
   NORTHWEST OHIO

CITY           SKY/WX    TMP DP  RH WIND       PRES   REMARKS
DEFIANCE       CLEAR     59  24  26 E5        30.04R
FINDLAY        CLEAR     55  33  43 NE8       30.04R
TOLEDO EXPRESS CLOUDY    54  32  43 SE3       30.04R
TOLEDO EXEC    CLOUDY    55  35  47 E5        30.06R
LIMA           CLEAR     57  32  38 NE7       30.03R
$$

OHZ009>014-019>023-028>033-038-089-240200-
   NORTHEAST OHIO

CITY           SKY/WX    TMP DP  RH WIND       PRES   REMARKS
CLE-HOPKINS    CLOUDY    53  30  41 NE6       30.08S
CLE-LAKEFRONT  PTCLDY    52  44  74 CALM      30.05S
CUY CO. ARPT   PTCLDY    54  32  43 E5        30.07R
LORAIN-ELYRIA  CLOUDY    50  31  48 NE6       30.06S
ASHTABULA      CLOUDY    50  30  46 CALM      30.07S
AKRON-CANTON   CLOUDY    56  39  53 N8        30.04R
WOOSTER        CLOUDY    53  40  61 N10       30.05R
MANSFIELD      CLOUDY    55  39  54 N9        30.04R
YOUNGSTOWN     CLOUDY    57  37  47 N9        30.06R
$$

OHZ042-051>053-060>062-070>072-077>081-240200-
  SOUTHWEST OHIO

CITY           SKY/WX    TMP DP  RH WIND       PRES   REMARKS
CINC-COVINGTON CLOUDY    61  35  37 NE9       29.96R
CINC-LUNKEN    MOCLDY    54  49  83 CALM      29.97R
HAMILTON       CLOUDY    53  45  74 CALM      29.98S
DAYTON         CLOUDY    57  33  40 NE9       30.00R
WRIGHT-PAT AFB CLOUDY    59  32  35 N6        29.98S
DAYTON GENERAL CLOUDY    59  33  37 E5        29.98R
WILMINGTON     CLOUDY    57  39  51 NE5       29.99R
$$

OHZ036-037-039>041-045>050-054>059-063>069-073>076-082>088-240200-
  CENTRAL AND SOUTHEAST OHIO

CITY           SKY/WX    TMP DP  RH WIND       PRES   REMARKS
COLUMBUS       CLOUDY    61  35  37 NE7       29.99R
OSU AIRPORT    CLOUDY    58  36  43 NE8       30.00R
BOLTON FIELD   CLOUDY    59  36  41 NE6       30.00R
RICKENBACK AFB CLOUDY    57  37  46 E5        29.99R
NEWARK         PTCLDY    62  33  33 CALM      29.99R
MARION         CLOUDY    54  38  54 NE12      30.03R
LANCASTER      CLOUDY    58  38  47 NE6       29.99R
ZANESVILLE     PTCLDY    61  34  36 NE3       29.99S
NEW PHILLY     NOT AVBL
$$




USA.gov is the U.S. government's official web portal to all federal, state and local government web resources and services.